, AK

(GMT )
Denali Park

Weather History for PAIN - October, 2012

Change the Weather History Date:

Tuesday, October 16, 2012

  Actual Average Record
Temperature  
Mean Temperature 9 °F -  
Max Temperature 17 °F 34 °F 57 °F (1969)
Min Temperature 1 °F 15 °F -16 °F (1996)
Degree Days  
Heating Degree Days 56    
Moisture  
Dew Point 10 °F    
Average Humidity 88    
Maximum Humidity 100    
Minimum Humidity 79    
Precipitation  
Precipitation 0.00 in - - ()
Sea Level Pressure  
Sea Level Pressure 29.40 in    
Wind  
Wind Speed 4 mph (North)    
Max Wind Speed 10 mph    
Max Gust Speed -    
Visibility 8 miles    
Events      
Averages and records for this station are not official NWS values.
T = Trace of Precipitation, MM = Missing Value Source: NWS Daily Summary

Daily Weather History Graph

Daily Weather History Graph

Search for Another Location

Airport or City:

Trip Planner

Search our weather history database for the weather conditions in past years. The results will help you decide how hot, cold, wet, or windy it might be!

Date:

Astronomy

Oct. 16, 2012 Rise Set
Actual Time 8:49 AM AKDT 6:30 PM AKDT
Civil Twilight 8:01 AM AKDT 7:19 PM AKDT
Nautical Twilight 7:06 AM AKDT 8:13 PM AKDT
Astronomical Twilight 6:11 AM AKDT 9:08 PM AKDT
Moon 11:18 AM AKDT (10/16) 6:24 PM AKDT (10/16)
Length of Visible Light 11h 17m
Length of Day
9h 41m
Waxing Crescent, 3% of the Moon is Illuminated
Oct 16
Waxing Crescent
Oct 21
First Quarter
Oct 29
Full
Nov 6
Last Quarter
Nov 13
New

Hourly Weather History & Observations

Time (AKDT) Temp. Windchill Dew Point Humidity Pressure Visibility Wind Dir Wind Speed Gust Speed Precip Events Conditions
12:16 AM 17.6 °F 10.7 °F 14.0 °F 86% 29.22 in 9.0 mi North 4.6 mph - N/A   Overcast
12:36 AM 15.8 °F 10.2 °F 14.0 °F 93% 29.22 in 10.0 mi North 3.5 mph - N/A   Mostly Cloudy
12:56 AM 15.8 °F 10.2 °F 14.0 °F 93% 29.22 in 10.0 mi North 3.5 mph - N/A   Overcast
1:16 AM 15.8 °F 8.6 °F 12.2 °F 86% 29.23 in 10.0 mi North 4.6 mph - N/A   Mostly Cloudy
1:36 AM 15.8 °F 8.6 °F 12.2 °F 86% 29.23 in 10.0 mi North 4.6 mph - N/A   Overcast
1:56 AM 14.0 °F 8.2 °F 12.2 °F 93% 29.24 in 10.0 mi North 3.5 mph - N/A   Scattered Clouds
2:16 AM 12.2 °F 2.9 °F 10.4 °F 92% 29.24 in 10.0 mi North 5.8 mph - N/A   Clear
2:36 AM 12.2 °F 6.1 °F 10.4 °F 92% 29.25 in 10.0 mi North 3.5 mph - N/A   Clear
2:56 AM 12.2 °F 6.1 °F 10.4 °F 92% 29.25 in 10.0 mi North 3.5 mph - N/A   Clear
3:16 AM 10.4 °F - 8.6 °F 92% 29.26 in 10.0 mi Calm Calm - N/A   Clear
3:36 AM 8.6 °F - 6.8 °F 92% 29.26 in 10.0 mi Calm Calm - N/A   Clear
3:56 AM 6.8 °F - 5.0 °F 92% 29.27 in 10.0 mi Calm Calm - N/A   Clear
4:16 AM 6.8 °F -0.1 °F 5.0 °F 92% 29.28 in 10.0 mi West 3.5 mph - N/A   Clear
4:36 AM 6.8 °F -0.1 °F 3.2 °F 85% 29.28 in 10.0 mi West 3.5 mph - N/A   Clear
4:56 AM 5.0 °F -2.1 °F 3.2 °F 92% 29.29 in 10.0 mi West 3.5 mph - N/A   Clear
5:16 AM 5.0 °F -2.1 °F 3.2 °F 92% 29.29 in 10.0 mi West 3.5 mph - N/A   Clear
5:36 AM 3.2 °F -4.2 °F 1.4 °F 92% 29.30 in 10.0 mi West 3.5 mph - N/A   Clear
5:56 AM 3.2 °F - 1.4 °F 92% 29.30 in 10.0 mi Calm Calm - N/A   Clear
6:16 AM 3.2 °F - 1.4 °F 92% 29.31 in 10.0 mi Calm Calm - N/A   Clear
6:36 AM 1.4 °F - 1.4 °F 100% 29.31 in 10.0 mi Calm Calm - N/A   Clear
6:56 AM 3.2 °F - 1.4 °F 92% 29.31 in 10.0 mi Calm Calm - N/A   Scattered Clouds
7:16 AM 3.2 °F -4.2 °F 1.4 °F 92% 29.32 in 10.0 mi SW 3.5 mph - N/A   Mostly Cloudy
7:36 AM 3.2 °F - 3.2 °F 100% 29.32 in 10.0 mi Calm Calm - N/A   Overcast
7:56 AM 3.2 °F - 1.4 °F 92% 29.33 in 10.0 mi Calm Calm - N/A   Overcast
8:16 AM 3.2 °F - 3.2 °F 100% 29.33 in 10.0 mi Calm Calm - N/A   Overcast
8:36 AM 5.0 °F - 5.0 °F 100% 29.33 in 10.0 mi Calm Calm - N/A   Overcast
8:56 AM 6.8 °F - 5.0 °F 92% 29.34 in 10.0 mi Calm Calm - N/A   Overcast
9:16 AM 8.6 °F - 6.8 °F 92% 29.34 in 10.0 mi Calm Calm - N/A   Overcast
9:36 AM 10.4 °F 2.2 °F 10.4 °F 100% 29.35 in 10.0 mi North 4.6 mph - N/A   Overcast
9:56 AM 12.2 °F - 10.4 °F 92% 29.35 in 10.0 mi Calm Calm - N/A   Overcast
10:16 AM 12.2 °F 4.3 °F 10.4 °F 92% 29.36 in 10.0 mi North 4.6 mph - N/A   Overcast
10:36 AM 12.2 °F - 10.4 °F 92% 29.36 in 10.0 mi Calm Calm - N/A   Overcast
10:56 AM 14.0 °F 5.1 °F 12.2 °F 93% 29.37 in 10.0 mi North 5.8 mph - N/A   Overcast
11:16 AM 15.8 °F - 12.2 °F 86% 29.37 in 10.0 mi Calm Calm - N/A   Overcast
11:36 AM 15.8 °F 10.2 °F 12.2 °F 86% 29.38 in 10.0 mi North 3.5 mph - N/A   Overcast
11:56 AM 15.8 °F 8.6 °F 10.4 °F 79% 29.39 in 10.0 mi NNE 4.6 mph - N/A   Overcast
12:16 PM 15.8 °F 3.4 °F 10.4 °F 79% 29.39 in 10.0 mi North 10.4 mph - N/A   Overcast
12:36 PM 15.8 °F 8.6 °F 10.4 °F 79% 29.40 in 9.0 mi NNE 4.6 mph - N/A   Overcast
12:56 PM 15.8 °F 5.1 °F 10.4 °F 79% 29.41 in 2.0 mi North 8.1 mph - N/A   Overcast
1:16 PM 15.8 °F 8.6 °F 12.2 °F 86% 29.42 in 1.0 mi North 4.6 mph - N/A   Overcast
1:56 PM 17.6 °F 10.7 °F 12.2 °F 79% 29.43 in 1.8 mi North 4.6 mph - N/A   Overcast
2:16 PM 17.6 °F 7.3 °F 12.2 °F 79% 29.43 in 2.0 mi North 8.1 mph - N/A   Overcast
2:36 PM 17.6 °F 7.3 °F 14.0 °F 86% 29.44 in 1.5 mi North 8.1 mph - N/A   Overcast
2:56 PM 17.6 °F 9.3 °F 14.0 °F 86% 29.45 in 3.0 mi North 5.8 mph - N/A   Overcast
3:16 PM 17.6 °F 8.2 °F 12.2 °F 79% 29.45 in 3.0 mi North 6.9 mph - N/A   Overcast
3:36 PM 17.6 °F 8.2 °F 12.2 °F 79% 29.46 in 5.0 mi North 6.9 mph - N/A   Overcast
3:56 PM 17.6 °F 9.3 °F 12.2 °F 79% 29.46 in 5.0 mi North 5.8 mph - N/A   Overcast
4:16 PM 17.6 °F 8.2 °F 12.2 °F 79% 29.47 in 8.0 mi North 6.9 mph - N/A   Overcast
4:36 PM 17.6 °F 9.3 °F 12.2 °F 79% 29.47 in 9.0 mi North 5.8 mph - N/A   Overcast
4:56 PM 17.6 °F 8.2 °F 12.2 °F 79% 29.47 in 10.0 mi North 6.9 mph - N/A   Overcast
5:16 PM 17.6 °F 8.2 °F 12.2 °F 79% 29.48 in 10.0 mi North 6.9 mph - N/A   Overcast
5:36 PM 15.8 °F 6.1 °F 12.2 °F 86% 29.49 in 10.0 mi North 6.9 mph - N/A   Overcast
5:56 PM 15.8 °F 10.2 °F 12.2 °F 86% 29.50 in 10.0 mi North 3.5 mph - N/A   Overcast
6:16 PM 15.8 °F 8.6 °F 12.2 °F 86% 29.51 in 10.0 mi North 4.6 mph - N/A   Overcast
6:36 PM 15.8 °F 8.6 °F 12.2 °F 86% 29.51 in 10.0 mi North 4.6 mph - N/A   Overcast
6:56 PM 15.8 °F 8.6 °F 12.2 °F 86% 29.52 in 10.0 mi North 4.6 mph - N/A   Overcast
7:16 PM 15.8 °F 7.2 °F 12.2 °F 86% 29.52 in 10.0 mi North 5.8 mph - N/A   Overcast
7:36 PM 15.8 °F 10.2 °F 12.2 °F 86% 29.53 in 10.0 mi North 3.5 mph - N/A   Overcast
7:56 PM 15.8 °F 10.2 °F 12.2 °F 86% 29.54 in 10.0 mi North 3.5 mph - N/A   Overcast
8:16 PM 15.8 °F 10.2 °F 12.2 °F 86% 29.54 in 10.0 mi North 3.5 mph - N/A   Overcast
8:36 PM 15.8 °F 10.2 °F 12.2 °F 86% 29.54 in 10.0 mi North 3.5 mph - N/A   Overcast
8:56 PM 15.8 °F 10.2 °F 12.2 °F 86% 29.55 in 7.0 mi North 3.5 mph - N/A   Overcast
9:16 PM 15.8 °F 8.6 °F 12.2 °F 86% 29.55 in 8.0 mi NNE 4.6 mph - N/A   Overcast
9:36 PM 15.8 °F 6.1 °F 12.2 °F 86% 29.56 in 5.0 mi North 6.9 mph - N/A   Overcast
9:56 PM 15.8 °F 8.6 °F 12.2 °F 86% 29.57 in 9.0 mi North 4.6 mph - N/A   Overcast
10:16 PM 15.8 °F 8.6 °F 12.2 °F 86% 29.57 in 8.0 mi North 4.6 mph - N/A   Overcast
10:36 PM 15.8 °F 8.6 °F 12.2 °F 86% 29.58 in 5.0 mi North 4.6 mph - N/A   Overcast
10:56 PM 15.8 °F 8.6 °F 12.2 °F 86% 29.59 in 9.0 mi North 4.6 mph - N/A   Overcast
11:16 PM 15.8 °F 10.2 °F 12.2 °F 86% 29.60 in 5.0 mi North 3.5 mph - N/A   Overcast
11:36 PM 15.8 °F - 12.2 °F 86% 29.61 in 5.0 mi Calm Calm - N/A   Overcast
11:56 PM 15.8 °F - 12.2 °F 86% 29.61 in 3.0 mi Calm Calm - N/A   Overcast